Weather History for Elmira, NY

Change the Weather History Date:

Monday, November 19, 2012

  Actual Average Record
Temperature  
Mean Temperature 34 °F -  
Max Temperature 50 °F 47 °F 70 °F (1941)
Min Temperature 19 °F 28 °F 12 °F (1959)
Degree Days  
Heating Degree Days 30    
Moisture  
Dew Point 23 °F    
Average Humidity 85    
Maximum Humidity 96    
Minimum Humidity 50    
Precipitation  
Precipitation 0.00 in - - ()
Sea Level Pressure  
Sea Level Pressure 30.45 in    
Wind  
Wind Speed 0 mph (ESE)    
Max Wind Speed 4 mph    
Max Gust Speed -    
Visibility 5 miles    
Events Fog    
Averages and records for this station are not official NWS values.
T = Trace of Precipitation, MM = Missing Value Source: NWS Daily Summary

Daily Weather History Graph

Daily Weather History Graph

Search for Another Location

Airport:

Trip Planner

Search our weather history database for the weather conditions in past years. The results will help you decide how hot, cold, wet, or windy it might be!

Date:

Astronomy

Nov. 19, 2012 Rise Set
Actual Time 7:03 AM EST 4:42 PM EST
Civil Twilight 6:32 AM EST 5:12 PM EST
Nautical Twilight 5:58 AM EST 5:47 PM EST
Astronomical Twilight 5:25 AM EST 6:20 PM EST
Moon 12:02 PM EST (11/19) 11:10 PM EST (11/19)
Length of Visible Light 10h 40m
Length of Day
9h 39m
Waxing Crescent, 40% of the Moon is Illuminated
Nov 19
Waxing Crescent
Nov 20
First Quarter
Nov 28
Full
Dec 6
Last Quarter
Dec 13
New

Hourly Weather History & Observations

Time (EST) Temp. Windchill Dew Point Humidity Pressure Visibility Wind Dir Wind Speed Gust Speed Precip Events Conditions
12:22 AM 21.2 °F - 19.4 °F 93% 30.52 in 1.5 mi Calm Calm - N/A   Clear
12:31 AM 21.2 °F - 19.4 °F 93% 30.52 in 0.5 mi Calm Calm - N/A Fog Light Freezing Fog
12:51 AM 23.0 °F - 19.4 °F 86% 30.52 in 2.5 mi Calm Calm - N/A   Clear
12:53 AM 21.9 °F - 19.0 °F 89% 30.55 in 4.0 mi Calm Calm - N/A   Clear
1:53 AM 21.9 °F - 19.0 °F 89% 30.54 in 9.0 mi Calm Calm - N/A   Clear
2:53 AM 21.0 °F - 18.0 °F 88% 30.54 in 5.0 mi Calm Calm - N/A   Clear
3:05 AM 21.2 °F - 17.6 °F 86% 30.51 in 6.0 mi Calm Calm - N/A   Scattered Clouds
3:16 AM 21.2 °F - 19.4 °F 93% 30.51 in 6.0 mi Calm Calm - N/A   Mostly Cloudy
3:44 AM 19.4 °F - 17.6 °F 93% 30.50 in 2.0 mi Calm Calm - N/A   Partly Cloudy
3:46 AM 19.4 °F - 17.6 °F 93% 30.50 in 0.8 mi Calm Calm - N/A   Mist
3:53 AM 21.0 °F - 18.0 °F 88% 30.53 in 0.2 mi Calm Calm - N/A Fog Light Freezing Fog
4:01 AM 21.2 °F - 17.6 °F 86% 30.50 in 1.0 mi Calm Calm - N/A   Mist
4:03 AM 21.2 °F - 17.6 °F 86% 30.50 in 2.0 mi Calm Calm - N/A   Partly Cloudy
4:10 AM 19.4 °F 14.3 °F 17.6 °F 93% 30.50 in 10.0 mi WSW 3.5 mph - N/A   Partly Cloudy
4:26 AM 21.2 °F 16.4 °F 17.6 °F 86% 30.50 in 1.8 mi SW 3.5 mph - N/A   Scattered Clouds
4:30 AM 21.2 °F - 19.4 °F 93% 30.50 in 1.0 mi Calm Calm - N/A   Mist
4:38 AM 21.2 °F - 19.4 °F 93% 30.50 in 0.5 mi Calm Calm - N/A Fog Light Freezing Fog
4:53 AM 19.9 °F - 19.0 °F 96% 30.53 in 0.2 mi Calm Calm - N/A Fog Light Freezing Fog
5:03 AM 19.4 °F - 17.6 °F 93% 30.50 in 0.8 mi Calm Calm - N/A   Mist
5:31 AM 21.2 °F - 19.4 °F 93% 30.49 in 0.2 mi Calm Calm - N/A Fog Light Freezing Fog
5:53 AM 21.0 °F - 19.0 °F 92% 30.53 in 0.2 mi Calm Calm - N/A Fog Light Freezing Fog
6:53 AM 19.9 °F - 17.1 °F 89% 30.53 in 0.2 mi Calm Calm - N/A Fog Light Freezing Fog
7:31 AM 21.2 °F - 19.4 °F 93% 30.49 in 0.2 mi Calm Calm - N/A Fog Light Freezing Fog
7:53 AM 21.9 °F - 19.9 °F 92% 30.53 in 0.2 mi Calm Calm - N/A Fog Light Freezing Fog
8:38 AM 24.8 °F - 23.0 °F 93% 30.47 in 0.8 mi Calm Calm - N/A   Mist
8:50 AM 26.6 °F - 24.8 °F 93% 30.47 in 3.0 mi Calm Calm - N/A   Partly Cloudy
8:53 AM 26.1 °F - 25.0 °F 96% 30.51 in 3.0 mi Calm Calm - N/A   Partly Cloudy
9:53 AM 32.0 °F - 28.0 °F 85% 30.50 in 6.0 mi Calm Calm - N/A   Clear
10:53 AM 39.0 °F - 33.1 °F 79% 30.47 in 8.0 mi Calm Calm - N/A   Clear
11:53 AM 44.1 °F - 34.0 °F 68% 30.42 in 10.0 mi Calm Calm - N/A   Clear
12:53 PM 46.9 °F - 33.1 °F 59% 30.39 in 10.0 mi NE 3.5 mph - N/A   Clear
1:53 PM 48.9 °F - 33.1 °F 54% 30.36 in 10.0 mi ENE 3.5 mph - N/A   Clear
2:53 PM 50.0 °F - 33.1 °F 52% 30.34 in 10.0 mi Calm Calm - N/A   Clear
3:53 PM 50.0 °F - 32.0 °F 50% 30.33 in 10.0 mi Calm Calm - N/A   Clear
4:53 PM 39.9 °F - 30.9 °F 70% 30.33 in 10.0 mi Calm Calm - N/A   Clear
5:53 PM 36.0 °F - 30.0 °F 79% 30.33 in 10.0 mi Calm Calm - N/A   Clear
6:53 PM 32.0 °F - 27.0 °F 82% 30.34 in 10.0 mi Calm Calm - N/A   Clear
7:53 PM 30.9 °F 27.5 °F 27.0 °F 85% 30.33 in 10.0 mi ESE 3.5 mph - N/A   Clear
8:53 PM 30.0 °F - 26.1 °F 85% 30.32 in 10.0 mi Calm Calm - N/A   Clear
9:53 PM 26.1 °F - 23.0 °F 88% 30.30 in 9.0 mi Calm Calm - N/A   Clear
10:53 PM 27.0 °F - 24.1 °F 89% 30.28 in 7.0 mi Calm Calm - N/A   Clear
11:53 PM 26.1 °F - 24.1 °F 92% 30.27 in 7.0 mi Calm Calm - N/A   Clear